TimeCDT,TemperatureF,Dew PointF,Humidity,Sea Level PressureIn,VisibilityMPH,Wind Direction,Wind SpeedMPH,Gust SpeedMPH,PrecipitationIn,Events,Conditions,WindDirDegrees,DateUTC
12:54 AM,53.1,52.0,96,29.73,1.0,NNE,4.6,-,0.01,,Mist,20,2012-10-14 05:54:00
1:16 AM,51.8,51.8,100,29.71,1.2,ENE,6.9,-,0.00,Rain,Light Rain,70,2012-10-14 06:16:00
1:40 AM,51.8,51.8,100,29.71,2.0,NE,6.9,-,0.01,Rain,Light Rain,50,2012-10-14 06:40:00
1:54 AM,52.0,51.1,97,29.73,2.5,NE,5.8,-,0.01,Rain,Light Rain,40,2012-10-14 06:54:00
2:08 AM,51.8,50.0,94,29.71,3.0,ENE,5.8,-,0.01,,Overcast,60,2012-10-14 07:08:00
2:29 AM,50.0,48.2,94,29.70,4.0,ENE,10.4,-,0.01,,Overcast,70,2012-10-14 07:29:00
2:54 AM,50.0,48.0,93,29.71,3.0,ENE,8.1,-,0.01,,Overcast,60,2012-10-14 07:54:00
3:54 AM,48.9,48.0,97,29.69,6.0,NE,10.4,-,N/A,,Overcast,50,2012-10-14 08:54:00
4:54 AM,48.9,48.0,97,29.67,9.0,ENE,8.1,-,N/A,,Overcast,60,2012-10-14 09:54:00
5:22 AM,48.2,46.4,93,29.65,2.5,ENE,11.5,-,N/A,,Overcast,60,2012-10-14 10:22:00
5:47 AM,48.2,46.4,93,29.67,1.5,ENE,5.8,-,0.13,Rain,Heavy Rain,60,2012-10-14 10:47:00
5:54 AM,48.0,46.9,96,29.68,1.8,East,9.2,-,0.24,Rain,Heavy Rain,80,2012-10-14 10:54:00
6:03 AM,48.2,46.4,93,29.65,2.5,NE,12.7,-,0.07,Rain,Heavy Rain,50,2012-10-14 11:03:00
6:08 AM,48.2,46.4,93,29.64,3.0,NE,12.7,21.9,0.08,Rain,Rain,50,2012-10-14 11:08:00
6:54 AM,48.0,46.0,93,29.64,5.0,NE,11.5,-,0.20,Rain,Rain,50,2012-10-14 11:54:00
7:20 AM,48.2,46.4,93,29.62,5.0,ENE,11.5,-,0.07,Rain,Rain,70,2012-10-14 12:20:00
7:54 AM,48.0,45.0,89,29.62,5.0,NE,10.4,-,0.13,Rain,Rain,50,2012-10-14 12:54:00
8:54 AM,46.9,45.0,93,29.60,3.0,NNE,12.7,-,0.11,Rain,Rain,30,2012-10-14 13:54:00
9:54 AM,46.9,44.1,90,29.62,5.0,NNE,11.5,-,0.12,Rain,Rain,20,2012-10-14 14:54:00
10:30 AM,46.4,44.6,93,29.62,4.0,NNW,8.1,-,0.08,Rain,Rain,340,2012-10-14 15:30:00
10:54 AM,46.9,44.1,90,29.62,5.0,NNE,13.8,19.6,0.12,Rain,Light Rain,20,2012-10-14 15:54:00
11:02 AM,46.4,44.6,93,29.60,4.0,NNE,11.5,-,0.01,Rain,Rain,30,2012-10-14 16:02:00
11:06 AM,46.4,44.6,93,29.60,4.0,NNE,13.8,-,0.03,Rain,Rain,20,2012-10-14 16:06:00
11:17 AM,46.4,44.6,93,29.60,5.0,North,12.7,-,0.05,Rain,Light Rain,360,2012-10-14 16:17:00
11:54 AM,46.9,44.1,90,29.62,9.0,NNE,11.5,20.7,0.09,Rain,Light Rain,20,2012-10-14 16:54:00
12:54 PM,46.0,44.1,93,29.61,6.0,North,12.7,-,0.08,Rain,Rain,360,2012-10-14 17:54:00
1:54 PM,46.0,43.0,89,29.62,7.0,North,10.4,19.6,0.08,Rain,Rain,350,2012-10-14 18:54:00
2:31 PM,44.6,42.8,93,29.62,8.0,North,9.2,-,0.06,Rain,Rain,350,2012-10-14 19:31:00
2:54 PM,45.0,43.0,93,29.64,5.0,NNW,8.1,-,0.10,Rain,Rain,340,2012-10-14 19:54:00
3:07 PM,44.6,42.8,93,29.62,5.0,NNW,10.4,-,0.02,Rain,Rain,340,2012-10-14 20:07:00
3:18 PM,44.6,42.8,93,29.62,7.0,NNW,10.4,-,0.04,Rain,Light Rain,340,2012-10-14 20:18:00
3:54 PM,45.0,43.0,93,29.64,7.0,NNW,11.5,-,0.07,Rain,Light Rain,340,2012-10-14 20:54:00
4:00 PM,44.6,42.8,93,29.63,8.0,NNW,10.4,-,0.00,Rain,Light Rain,330,2012-10-14 21:00:00
4:54 PM,46.0,42.1,86,29.67,10.0,NW,11.5,-,0.01,,Overcast,320,2012-10-14 21:54:00
5:54 PM,46.0,42.1,86,29.70,10.0,NW,11.5,-,N/A,,Overcast,310,2012-10-14 22:54:00
6:42 PM,46.4,41.0,81,29.70,10.0,NW,11.5,-,N/A,,Overcast,320,2012-10-14 23:42:00
6:54 PM,45.0,42.1,90,29.73,10.0,NW,10.4,24.2,N/A,,Overcast,310,2012-10-14 23:54:00
7:50 PM,44.6,41.0,87,29.74,10.0,NW,12.7,-,N/A,,Overcast,320,2012-10-15 00:50:00
7:54 PM,45.0,41.0,86,29.75,10.0,NNW,16.1,23.0,N/A,,Overcast,330,2012-10-15 00:54:00
8:09 PM,44.6,39.2,81,29.74,10.0,NNW,12.7,-,N/A,,Overcast,330,2012-10-15 01:09:00
8:54 PM,45.0,39.0,80,29.78,10.0,NNW,13.8,21.9,N/A,,Overcast,330,2012-10-15 01:54:00
9:54 PM,44.1,37.9,79,29.79,10.0,NNW,9.2,18.4,N/A,,Overcast,330,2012-10-15 02:54:00
10:54 PM,42.1,37.0,82,29.81,10.0,NW,9.2,-,N/A,,Scattered Clouds,320,2012-10-15 03:54:00
11:54 PM,41.0,37.0,86,29.82,10.0,NW,6.9,-,N/A,,Clear,320,2012-10-15 04:54:00